Location: Daouli
(14.8671°N, 3.2030°W)
Time: 02:28:04
(UTC+00:00)

Cosmos 967 Rocket - Pass Details

Date: 29 October 2020
Orbit: 954 x 984 km, 65.8° (Epoch: 02 December)

Event Time Altitude Azimuth Distance (km) Brightness Sun altitude
Rises 18:18:07 0° 196° (SSW) 3,677 7.9 -8.6°
Reaches altitude 10° 18:20:42 10° 194° (SSW) 2,730 7.2 -9.2°
Maximum altitude 18:27:03 71° 111° (ESE) 1,033 4.5 -10.7°
Drops below altitude 10° 18:33:24 10° 28° (NNE) 2,724 6.5 -12.2°
Sets 18:35:58 0° 26° (NNE) 3,668 7.2 -12.8°
